PROFILE

 METAR AND TAF INFORMATION
ADDS - METARS form results

(1429 UTC 22 January 2019)
http://aviationweather.gov/metar/data/
 
LFMN 221400Z 21012KT 9999 FEW026 11/03 Q1004 NOSIG
LFMN 221330Z 22012KT 9999 FEW026 11/03 Q1004 NOSIG
TAF LFMN 221400Z 2215/2321 22010KT CAVOK BECMG 2217/2219 34012KT BECMG 2310/2312 16008KT TEMPO 2314/2317 09016KT PROB40 TEMPO 2308/2317 SHRA SCT040TCU PROB30 TEMPO 2308/2317 VRB15G25KT -TSRA SCT030CB SCT090 BECMG 2317/2319 36012KT 

 AIRPORT MAP

 RUNWAY INFORMATION
Runway 04L Runway length 8995 ft Runway width 148 ft
Runway elevation 10 ft Runway displaced threshold 0 ft Runway heading 45
Runway 22R Runway length 8995 ft Runway width 148 ft
Runway elevation 10 ft Runway displaced threshold 575 ft Runway heading 225
Runway 04R Runway length 9712 ft Runway width 148 ft
Runway elevation 10 ft Runway displaced threshold 0 ft Runway heading 45
Runway 22L Runway length 9712 ft Runway width 148 ft
Runway elevation 12 ft Runway displaced threshold 0 ft Runway heading 225

 AIRPORT FREQUENCIES
Type A/D Name NICE APP Frequency 124.175 MHZ
Type ATIS Name NICE ATIS Frequency 129.6 MHZ
Type GND Name NICE GND Frequency 121.775 MHZ
Type TWR Name NICE TWR Frequency 118.7 MHZ

 AIRPORT NEAR NAVIGATION AIDS
Type VOR-DME Name Nice Cote D Azur Frequency 109650 KHZ
Type VOR-DME Name Cagnes Sur Mer Frequency 109200 KHZ
Type NDB Name Nice Frequency 399 KHZ
Type VOR-DME Name Nice Frequency 112400 KHZ